CW5439 Weather Reports


Display with metric or nautical units.
time (UTC)temp
F
wind
direction
speed
MPH
gust
MPH
rain 1hr
in
rain 24hr
in
rain mn
in
humidity
%
barometer
mb
20260510054205 37 200 3.0 4.0 0.00 0.01 0.00 92 1022.8
20260510053206 37 205 2.0 2.0 0.00 0.01 0.00 92 1022.8
20260510052205 37 207 1.0 2.0 0.00 0.01 0.00 92 1022.8
20260510051705 37 207 1.0 2.0 0.00 0.01 0.00 92 1022.8
20260510051205 37 207 1.0 2.0 0.00 0.01 0.00 92 1022.9
20260510050728 37 207 1.0 2.0 0.00 0.01 0.00 92 1022.9
20260510050205 37 195 1.0 2.0 0.00 0.01 0.00 92 1022.8
20260510045705 37 195 0.0 2.0 0.00 0.01 0.00 92 1022.8
20260510045205 37 195 0.0 2.0 0.00 0.01 0.00 92 1022.8
20260510044705 37 195 1.0 2.0 0.00 0.01 0.00 92 1022.8
20260510044205 37 195 0.0 2.0 0.00 0.01 0.00 92 1022.8
20260510043205 37 195 1.0 4.0 0.00 0.01 0.00 92 1022.9
20260510042705 37 195 2.0 4.0 0.00 0.01 0.00 92 1022.9
20260510042206 37 195 2.0 4.0 0.00 0.02 0.00 92 1022.9
20260510041705 37 221 2.0 4.0 0.00 0.02 0.00 92 1022.9
20260510041205 37 219 3.0 4.0 0.00 0.02 0.00 92 1023.0
20260510040205 37 225 2.0 3.0 0.00 0.02 0.00 92 1022.9
20260510035206 37 225 1.0 5.0 0.00 0.02 0.00 92 1023.0
20260510034704 37 234 3.0 6.0 0.00 0.02 0.00 92 1023.0
20260510034205 37 215 3.0 6.0 0.00 0.02 0.00 92 1023.0
20260510033705 37 221 3.0 5.0 0.00 0.02 0.00 92 1023.0
20260510032205 36 204 4.0 5.0 0.00 0.02 0.00 92 1023.1
20260510031705 36 225 3.0 5.0 0.00 0.02 0.00 92 1023.3
20260510031205 36 214 2.0 4.0 0.00 0.02 0.00 91 1023.4
20260510030704 36 215 1.0 3.0 0.00 0.02 0.00 91 1023.4
20260510030211 36 235 1.0 2.0 0.00 0.02 0.00 91 1023.4
20260510025705 36 263 1.0 3.0 0.00 0.02 0.00 91 1023.4
20260510025206 36 263 1.0 3.0 0.00 0.02 0.00 91 1023.4
20260510024705 36 263 1.0 3.0 0.00 0.02 0.00 91 1023.4
20260510024206 36 263 1.0 3.0 0.00 0.02 0.00 91 1023.4
20260510023705 36 246 1.0 3.0 0.00 0.02 0.00 91 1023.4
20260510023205 36 246 1.0 3.0 0.00 0.02 0.00 91 1023.4
20260510022706 36 246 1.0 2.0 0.00 0.02 0.00 91 1023.4
20260510021705 36 256 0.0 2.0 0.00 0.02 0.00 91 1023.5
20260510021205 36 256 1.0 2.0 0.00 0.02 0.00 91 1023.4
20260510020705 36 256 1.0 3.0 0.00 0.02 0.00 91 1023.4
20260510020206 36 246 1.0 3.0 0.00 0.02 0.00 91 1023.4
20260510015705 36 246 2.0 3.0 0.00 0.02 0.00 91 1023.4
20260510015206 36 246 1.0 2.0 0.00 0.02 0.00 91 1023.4
20260510013205 36 279 1.0 4.0 0.00 0.02 0.00 90 1023.5
20260510012704 37 184 2.0 4.0 0.00 0.02 0.00 90 1023.5
20260510011705 37 261 2.0 3.0 0.00 0.02 0.00 90 1023.6
20260510010705 37 261 1.0 3.0 0.00 0.02 0.00 90 1023.7
20260510010205 37 261 1.0 3.0 0.00 0.02 0.00 89 1023.8
20260510005207 38 261 0.0 2.0 0.00 0.02 0.00 89 1023.8
20260510004705 38 261 1.0 2.0 0.00 0.02 0.00 89 1023.8
20260510004206 38 261 1.0 2.0 0.00 0.02 0.00 89 1023.8
20260510003705 38 261 1.0 3.0 0.00 0.02 0.00 89 1023.8
20260510003205 38 261 1.0 3.0 0.00 0.02 0.00 89 1023.8
20260510002705 38 261 1.0 3.0 0.00 0.02 0.00 89 1023.8
20260510002206 38 261 1.0 2.0 0.00 0.02 0.00 89 1023.9
20260510001221 38 261 1.0 3.0 0.00 0.02 0.00 88 1024.0
20260509235705 38 261 1.0 3.0 0.00 0.02 0.00 88 1024.1
20260509235206 38 261 1.0 2.0 0.00 0.02 0.00 88 1024.2
20260509234705 38 261 1.0 2.0 0.00 0.02 0.00 87 1024.2
20260509234205 38 261 1.0 2.0 0.00 0.02 0.00 87 1024.2
20260509233705 38 261 1.0 3.0 0.00 0.02 0.00 87 1024.3
20260509233205 39 261 1.0 3.0 0.00 0.02 0.00 86 1024.3
20260509232705 39 261 1.0 3.0 0.00 0.02 0.00 86 1024.4
20260509232205 39 261 1.0 2.0 0.00 0.02 0.00 86 1024.4
20260509230705 39 261 1.0 2.0 0.00 0.02 0.00 85 1024.4
20260509230205 40 261 1.0 2.0 0.00 0.02 0.02 85 1024.4
20260509225705 40 266 0.0 2.0 0.00 0.02 0.02 85 1024.4
20260509225206 40 267 1.0 2.0 0.00 0.02 0.02 85 1024.3
20260509224705 40 267 1.0 2.0 0.00 0.02 0.02 84 1024.3
20260509224205 40 277 1.0 2.0 0.00 0.02 0.02 85 1024.3
20260509223705 40 46 1.0 2.0 0.00 0.02 0.02 85 1024.3
20260509223205 41 46 1.0 2.0 0.00 0.02 0.02 84 1024.3
20260509222706 41 46 0.0 2.0 0.00 0.02 0.02 84 1024.3
20260509222206 41 46 0.0 1.0 0.00 0.02 0.02 84 1024.3
20260509221205 41 46 0.0 1.0 0.00 0.02 0.02 83 1024.4
20260509220705 41 46 0.0 1.0 0.00 0.02 0.02 83 1024.5
20260509220206 42 46 0.0 1.0 0.00 0.02 0.02 82 1024.5
20260509215705 42 46 0.0 1.0 0.00 0.02 0.02 82 1024.5
20260509215205 42 46 0.0 2.0 0.00 0.02 0.02 82 1024.4
20260509214705 42 46 0.0 2.0 0.00 0.02 0.02 81 1024.5
20260509214205 43 46 1.0 2.0 0.00 0.02 0.02 81 1024.4
20260509212704 43 68 1.0 2.0 0.00 0.02 0.02 80 1024.3
20260509212208 43 78 1.0 2.0 0.00 0.02 0.02 80 1024.4
20260509211705 44 78 0.0 1.0 0.00 0.02 0.02 79 1024.3
20260509211205 44 78 0.0 1.0 0.00 0.02 0.02 79 1024.4
20260509210705 44 78 0.0 2.0 0.00 0.02 0.02 78 1024.4
20260509210206 44 78 0.0 2.0 0.00 0.02 0.02 79 1024.4
20260509205705 44 78 1.0 3.0 0.00 0.02 0.02 78 1024.4
20260509205206 44 78 1.0 4.0 0.00 0.02 0.02 78 1024.4
20260509204704 44 78 1.0 4.0 0.00 0.02 0.02 78 1024.3
20260509204205 44 69 2.0 4.0 0.00 0.02 0.02 78 1024.3
20260509203705 44 87 2.0 4.0 0.00 0.02 0.02 78 1024.3
20260509203205 45 88 2.0 4.0 0.00 0.02 0.02 77 1024.3
20260509202705 45 76 2.0 4.0 0.00 0.02 0.02 77 1024.2
20260509202205 45 73 2.0 5.0 0.00 0.02 0.02 77 1024.2
20260509201705 45 109 2.0 5.0 0.00 0.02 0.02 77 1024.1
20260509201205 45 93 3.0 7.0 0.00 0.02 0.02 77 1024.0
20260509200205 45 87 4.0 7.0 0.00 0.02 0.02 76 1024.1
20260509195705 46 99 4.0 7.0 0.00 0.02 0.02 76 1024.1
20260509195205 46 112 4.0 8.0 0.00 0.02 0.02 77 1024.1
20260509194705 46 71 3.0 8.0 0.00 0.02 0.02 76 1024.1
20260509194204 46 73 4.0 8.0 0.00 0.02 0.02 76 1024.1
20260509193713 46 71 4.0 7.0 0.00 0.02 0.02 76 1024.1
20260509193205 46 71 4.0 8.0 0.00 0.02 0.02 76 1023.9
20260509192205 46 60 5.0 8.0 0.00 0.02 0.02 75 1023.8
20260509191705 46 90 5.0 8.0 0.00 0.02 0.02 74 1023.8
20260509191205 46 88 5.0 8.0 0.00 0.02 0.02 74 1023.9
20260509190205 46 74 4.0 9.0 0.00 0.02 0.02 74 1023.9
20260509185705 46 67 5.0 11.0 0.00 0.02 0.02 73 1023.8
20260509185206 46 51 6.0 11.0 0.00 0.02 0.02 72 1023.8
20260509184705 46 61 6.0 11.0 0.00 0.02 0.02 73 1023.7
20260509183706 47 76 5.0 11.0 0.00 0.02 0.02 73 1023.6
20260509183204 47 77 5.0 11.0 0.00 0.02 0.02 73 1023.6
20260509182205 47 86 6.0 10.0 0.00 0.02 0.02 74 1023.5
20260509181705 47 71 5.0 10.0 0.00 0.02 0.02 74 1023.5
20260509181207 47 114 5.0 9.0 0.00 0.02 0.02 75 1023.4
20260509180703 47 81 4.0 11.0 0.00 0.02 0.02 74 1023.4
20260509180205 47 71 5.0 11.0 0.00 0.02 0.02 75 1023.4
20260509175707 47 104 6.0 9.0 0.00 0.02 0.02 75 1023.3
20260509175205 47 82 5.0 10.0 0.00 0.02 0.02 76 1023.3
20260509174706 47 77 5.0 11.0 0.00 0.02 0.02 76 1023.3
20260509174205 47 65 7.0 13.0 0.00 0.02 0.02 76 1023.4
20260509173705 47 40 7.0 13.0 0.00 0.02 0.02 75 1023.4
20260509173205 47 61 7.0 13.0 0.00 0.02 0.02 75 1023.3
20260509172706 47 107 7.0 13.0 0.00 0.02 0.02 75 1023.3
20260509172205 47 92 8.0 13.0 0.00 0.02 0.02 74 1023.1
20260509171705 47 102 7.0 12.0 0.00 0.02 0.02 74 1023.1
20260509171205 47 95 7.0 12.0 0.00 0.02 0.02 74 1023.1
20260509170705 47 86 7.0 12.0 0.00 0.02 0.02 74 1023.3
20260509165705 47 84 6.0 12.0 0.00 0.02 0.02 75 1023.1
20260509165205 47 109 6.0 12.0 0.00 0.02 0.02 75 1023.0
20260509164705 47 74 7.0 12.0 0.00 0.02 0.02 75 1023.0
20260509164206 47 90 6.0 10.0 0.00 0.02 0.02 75 1023.0
20260509163705 47 92 6.0 10.0 0.00 0.02 0.02 75 1023.0
20260509163205 47 70 5.0 10.0 0.00 0.02 0.02 75 1023.0
20260509162705 47 90 6.0 10.0 0.00 0.02 0.02 75 1023.1
20260509162205 47 109 6.0 10.0 0.00 0.02 0.02 75 1023.0
20260509161705 47 140 6.0 12.0 0.00 0.02 0.02 74 1023.0
20260509161205 47 91 7.0 12.0 0.00 0.02 0.02 74 1022.9
20260509160704 47 111 7.0 12.0 0.00 0.02 0.02 74 1023.0
20260509160205 48 123 6.0 12.0 0.00 0.02 0.02 73 1022.9
20260509155705 48 96 6.0 13.0 0.00 0.02 0.02 73 1022.9
20260509154705 48 101 9.0 15.0 0.00 0.02 0.02 71 1022.9
20260509154205 49 134 7.0 13.0 0.00 0.02 0.02 71 1022.8
20260509153706 49 96 7.0 13.0 0.00 0.02 0.02 71 1022.8
20260509153205 49 132 8.0 14.0 0.00 0.02 0.02 69 1022.8
20260509152705 49 81 7.0 14.0 0.00 0.02 0.02 68 1022.8
20260509152206 49 88 6.0 15.0 0.00 0.02 0.02 69 1022.7
20260509151705 49 109 7.0 15.0 0.00 0.02 0.02 69 1022.6
20260509151205 50 96 9.0 15.0 0.00 0.02 0.02 66 1022.7
20260509150704 50 88 8.0 15.0 0.00 0.02 0.02 67 1022.8
20260509150204 50 104 7.0 15.0 0.00 0.02 0.02 68 1022.7
20260509145705 50 123 7.0 15.0 0.00 0.02 0.02 69 1022.7
20260509145206 50 117 7.0 13.0 0.00 0.02 0.02 69 1022.7
20260509144709 50 115 7.0 14.0 0.00 0.02 0.02 68 1022.6
20260509144205 51 116 8.0 16.0 0.00 0.02 0.02 68 1022.6
20260509143705 51 71 9.0 16.0 0.00 0.02 0.02 68 1022.6
20260509143205 51 111 9.0 15.0 0.00 0.02 0.02 67 1022.6
20260509142704 51 80 7.0 13.0 0.00 0.02 0.02 67 1022.6
20260509142206 51 84 8.0 13.0 0.00 0.02 0.02 68 1022.6
20260509141705 51 94 8.0 14.0 0.00 0.02 0.02 69 1022.7
20260509141205 51 107 8.0 14.0 0.00 0.02 0.02 68 1022.7
20260509140704 51 105 8.0 14.0 0.00 0.02 0.02 67 1022.6
20260509140204 52 82 9.0 14.0 0.00 0.02 0.02 66 1022.7
20260509135705 51 78 9.0 15.0 0.00 0.02 0.02 70 1022.7
20260509135205 51 133 10.0 15.0 0.00 0.02 0.02 70 1022.6
20260509134205 51 121 10.0 16.0 0.00 0.02 0.02 70 1022.6
20260509133705 51 98 9.0 16.0 0.00 0.02 0.02 69 1022.6
20260509133205 51 127 9.0 16.0 0.00 0.02 0.02 70 1022.7
20260509132705 51 107 8.0 16.0 0.00 0.02 0.02 69 1022.7
20260509132205 51 144 8.0 16.0 0.00 0.02 0.02 69 1022.7
20260509131705 51 99 8.0 16.0 0.00 0.02 0.02 71 1022.7
20260509131233 51 92 8.0 16.0 0.00 0.02 0.02 68 1022.7
20260509130205 51 84 9.0 13.0 0.00 0.02 0.02 69 1022.7
20260509125704 51 106 9.0 13.0 0.00 0.02 0.02 70 1022.8
20260509125205 51 105 8.0 12.0 0.00 0.02 0.02 71 1022.8
20260509124705 51 123 7.0 12.0 0.00 0.02 0.02 71 1022.8
20260509124205 51 128 6.0 11.0 0.00 0.02 0.02 73 1022.8
20260509123705 50 90 5.0 10.0 0.00 0.02 0.02 72 1022.8
20260509122706 49 103 7.0 13.0 0.00 0.02 0.02 74 1022.9
20260509122205 49 56 7.0 13.0 0.00 0.02 0.02 73 1022.9
20260509121705 49 65 6.0 13.0 0.00 0.02 0.02 73 1022.9
20260509121205 49 86 7.0 13.0 0.00 0.02 0.02 72 1022.9
20260509120705 49 55 7.0 14.0 0.00 0.02 0.02 72 1023.0
20260509120205 49 69 7.0 14.0 0.00 0.02 0.02 73 1022.9
20260509115705 48 106 5.0 13.0 0.00 0.02 0.02 75 1023.0
20260509115205 48 105 4.0 12.0 0.00 0.02 0.02 74 1023.0
20260509114705 48 103 6.0 12.0 0.00 0.02 0.02 74 1023.1
20260509114205 47 106 6.0 12.0 0.00 0.02 0.02 74 1023.1
20260509113704 47 48 6.0 12.0 0.00 0.02 0.02 74 1023.1
20260509113206 48 0 6.0 11.0 0.00 0.02 0.02 75 1023.1
20260509112705 48 54 5.0 10.0 0.00 0.02 0.02 74 1023.1
20260509112205 48 62 5.0 10.0 0.00 0.02 0.02 73 1023.1
20260509111705 48 76 6.0 13.0 0.00 0.02 0.02 75 1023.1
20260509111205 48 106 7.0 13.0 0.00 0.02 0.02 73 1023.0
20260509110205 48 64 8.0 13.0 0.00 0.02 0.02 73 1023.0
20260509105705 48 69 8.0 15.0 0.00 0.02 0.02 71 1022.9
20260509105205 48 104 7.0 15.0 0.00 0.02 0.02 73 1023.0
20260509104205 48 71 6.0 12.0 0.00 0.02 0.02 71 1022.9
20260509103706 48 61 6.0 13.0 0.00 0.02 0.02 72 1022.9
20260509103205 48 82 7.0 13.0 0.00 0.02 0.02 71 1022.9
20260509102705 48 57 8.0 13.0 0.00 0.02 0.02 70 1022.9
20260509102205 49 77 7.0 13.0 0.00 0.02 0.02 72 1022.9
20260509101705 49 80 7.0 12.0 0.00 0.02 0.02 72 1022.8
20260509101205 48 47 7.0 13.0 0.00 0.02 0.02 73 1022.8
20260509100705 48 70 7.0 11.0 0.00 0.02 0.02 73 1022.9
20260509100205 48 71 7.0 11.0 0.00 0.02 0.02 73 1022.9
20260509095205 47 66 6.0 13.0 0.00 0.02 0.02 77 1022.9
20260509094705 46 74 7.0 13.0 0.00 0.02 0.02 76 1022.9
20260509094205 46 41 6.0 10.0 0.00 0.02 0.02 76 1022.8
20260509093205 46 74 6.0 10.0 0.00 0.02 0.02 77 1022.8
20260509092705 46 78 5.0 11.0 0.00 0.02 0.02 77 1022.7
20260509092206 46 13 6.0 11.0 0.00 0.02 0.02 77 1022.8
20260509091205 46 80 8.0 14.0 0.00 0.02 0.02 77 1022.8
20260509090705 45 69 9.0 14.0 0.00 0.02 0.02 77 1022.9
20260509090205 46 53 7.0 14.0 0.00 0.02 0.02 78 1022.8
20260509085705 46 59 7.0 14.0 0.00 0.02 0.02 78 1022.8
20260509085208 45 59 7.0 14.0 0.00 0.02 0.02 79 1022.8
20260509084705 45 30 6.0 11.0 0.00 0.02 0.02 80 1022.8
20260509084205 45 32 7.0 11.0 0.00 0.02 0.02 80 1022.7
20260509083705 45 67 7.0 11.0 0.01 0.02 0.02 81 1022.7
20260509083205 45 86 6.0 11.0 0.01 0.02 0.02 81 1022.7
20260509082706 45 37 6.0 10.0 0.01 0.02 0.02 82 1022.7
20260509081733 45 51 5.0 13.0 0.01 0.02 0.02 82 1022.6
20260509081205 45 82 7.0 13.0 0.01 0.02 0.02 82 1022.6
20260509080705 45 50 7.0 11.0 0.01 0.02 0.02 82 1022.5
20260509080226 45 49 7.0 11.0 0.01 0.02 0.02 82 1022.4
20260509075706 44 43 6.0 13.0 0.01 0.02 0.02 82 1022.4
20260509075205 44 47 7.0 13.0 0.01 0.02 0.02 82 1022.4
20260509074705 44 52 7.0 12.0 0.01 0.02 0.02 82 1022.5
20260509074206 44 57 7.0 12.0 0.00 0.02 0.02 83 1022.4
20260509073705 44 51 7.0 12.0 0.00 0.02 0.02 83 1022.4
20260509073206 44 43 7.0 11.0 0.00 0.02 0.02 83 1022.3
20260509072705 44 9 6.0 11.0 0.00 0.02 0.02 83 1022.2
20260509071705 44 34 7.0 11.0 0.00 0.02 0.02 82 1022.1
20260509070705 45 65 5.0 11.0 0.00 0.02 0.02 81 1022.1
20260509070205 44 60 6.0 12.0 0.00 0.02 0.02 81 1022.1
20260509065705 44 46 6.0 12.0 0.00 0.02 0.02 80 1022.1
20260509064205 44 56 5.0 11.0 0.00 0.02 0.02 81 1021.9
20260509063706 44 46 6.0 11.0 0.00 0.02 0.02 82 1021.9
20260509063205 44 32 6.0 10.0 0.00 0.02 0.02 82 1022.0
20260509062705 44 56 5.0 10.0 0.00 0.02 0.02 83 1022.0
20260509062206 45 32 5.0 10.0 0.00 0.02 0.02 83 1022.0
20260509061705 45 48 6.0 11.0 0.00 0.02 0.02 83 1021.9
20260509061205 45 53 6.0 16.0 0.00 0.02 0.02 83 1021.9
20260509060704 44 64 7.0 16.0 0.00 0.02 0.02 83 1021.9
20260509060206 44 52 7.0 16.0 0.00 0.02 0.02 83 1021.7
20260509055705 44 53 8.0 14.0 0.00 0.02 0.02 83 1021.7
20260509055206 44 46 8.0 14.0 0.00 0.02 0.02 84 1021.7
20260509054706 44 32 7.0 14.0 0.00 0.02 0.02 84 1021.7